Regional Weather Roundup
Issued by NWS

Home | Current Version | Previous Version | Graphics & Text | Print | Product List | Glossary On
Versions: 1 2 3 4 5 6 7 8 9 10 11 12 13 14 15 16 17 18 19 20 21 22 23 24 25 26 27 28 29 30 31 32 33 34 35 36 37 38 39 40 41 42 43 44 45 46 47 48 49 50
000
ASUS43 KMPX 191001
RWRMN
WEATHER ROUNDUP FOR MINNESOTA
NATIONAL WEATHER SERVICE TWIN CITIES/CHANHASSEN MN
500 AM CDT SUN APR 19 2015


NOTE: "FAIR" INDICATES FEW OR NO CLOUDS BELOW 12,000 FEET WITH NO
SIGNIFICANT WEATHER AND/OR OBSTRUCTIONS TO VISIBILITY. N/A MEANS
CURRENT SKY AND/OR WEATHER CONDITIONS ARE NOT AVAILABLE.

MNZ060>063-068>070-191100-
   Twin Cities Metro

CITY           SKY/WX    TMP DP  RH WIND       PRES   REMARKS
TWIN CITIES    LGT RAIN  49  42  77 SE12      29.77F
ST PAUL        LGT RAIN  49  40  71 E9        29.78F
CRYSTAL        LGT RAIN  51  42  71 SE6       29.76S
BLAINE         LGT RAIN  50  43  76 SE7G16    29.77S
LAKEVILLE      LGT RAIN  48  43  81 SE6       29.77F
EDEN PRAIRIE   LGT RAIN  50  43  77 SE10      29.76S
SOUTH ST PAUL  LGT RAIN  50  40  69 SE5       29.77F
LAKE ELMO      CLOUDY    48  37  66 SE5       29.79S
$$
MNZ001>005-007-008-013>017-022>024-027-028-191100-
   Northwest Minnesota

CITY           SKY/WX    TMP DP  RH WIND       PRES   REMARKS
BEMIDJI        LGT RAIN  39  38  97 E7        29.76F
HALLOCK        DRIZZLE   48  45  87 CALM      29.75F
ROSEAU         DRIZZLE   46  39  76 S5        29.77F
WARROAD        DRIZZLE   45  37  76 S7        29.77F
THIEF RVR FALL CLOUDY    46  43  87 E5        29.75F
CROOKSTON      DRIZZLE   48  46  93 CALM      29.75F
FOSSTON        DRIZZLE   45  37  76 SE5       29.75F
DETROIT LAKES  RAIN      45  43  93 E6        29.72F
MOORHEAD       DRIZZLE   48  46  93 CALM      29.74S
PARK RAPIDS    RAIN      43  41  93 E10       29.72F FOG
MAHNOMEN       RAIN      45  44  96 E5        29.73F
$$
MNZ006-009>011-018-025>026-191100-
   North Central Minnesota

CITY           SKY/WX    TMP DP  RH WIND       PRES   REMARKS
BAUDETTE       LGT RAIN  42  33  70 SE7       29.79F
FLAG ISLAND    DRIZZLE   39  32  75 S8        29.78F
INTL FALLS     LGT RAIN  43  26  51 S7        29.83F
WASKISH        DRIZZLE   43  39  87 CALM      29.79F
BIG FORK       LGT RAIN  39  37  93 SE7       29.82F
LONGVILLE      RAIN      39  37  93 E6        29.77F
GRAND RAPIDS   CLOUDY    37  34  87 SE7       29.81F
ORR            LGT RAIN  37  36  93 SE8       29.83F
COOK           RAIN      39  37  93 SE5       29.85F
WALKER         RAIN      40  39  97 E9        29.77F
$$
MNZ012-019>021-037-191100-
   Northeast Minnesota

CITY           SKY/WX    TMP DP  RH WIND       PRES   REMARKS
DULUTH         LGT RAIN  38  33  82 E16       29.83F
ELY            RAIN      36  34  93 E6        29.85F
HIBBING        HVY RAIN  38  35  89 E9        29.84F FOG
EVELETH        LGT RAIN  36  36 100 NE3       29.85F
DULUTH HARBOR  LGT RAIN  37  36  93 NE18      29.88S
TWO HARBORS    LGT RAIN  39  36  87 NE8       29.84F
SILVER BAY     DRIZZLE   36  34  93 NE10G16   29.87F
GRAND MARAIS     N/A     41  27  57 NE14      29.95F
G MARAIS ARPRT CLOUDY    37  23  56 NE7       29.93F
$$
MNZ029>031-032-039>041-046>048-054>057-064-191100-
   West Central Minnesota

CITY           SKY/WX    TMP DP  RH WIND       PRES   REMARKS
FERGUS FALLS   CLOUDY    45  45 100 NE9       29.70F FOG
WHEATON        DRIZZLE   46  45  93 NW6       29.70F
MORRIS         FOG       52  52 100 SW10      29.66F VSB 1
ALEXANDRIA     CLOUDY    49  48  97 SE12      29.68F FOG
ELBOW LAKE     CLOUDY    49  49  99 SE8       29.66F
WADENA         HVY RAIN  43  41  93 E9        29.69F
GLENWOOD       DRIZZLE   52  52 100 SE14      29.68F
APPLETON         N/A     54  50  87 W5        29.67F FOG
BENSON         CLOUDY    54  52  94 S8        29.68F FOG
ORTONVILLE     DRIZZLE   50  48  93 NW6       29.68F
MADISON        CLOUDY    52  50  93 CALM      29.68S FOG
WILLMAR        DRIZZLE   54  54 100 SE9       29.71F
$$
MNZ033>034-036-042>043-049>051-058-059-191100-
   Central Minnesota

CITY           SKY/WX    TMP DP  RH WIND       PRES   REMARKS
ST CLOUD       LGT RAIN  47  44  90 E6        29.74F
SAUK CENTRE    LGT RAIN  48  46  95 SE13G20   29.70F
PAYNESVILLE    LGT RAIN  46  46  99 E9        29.72F
AITKIN         MIX PCPN  39  36  87 E6        29.76F
PINE RIVER     LGT RAIN  39  39 100 E15       29.79F
BRAINERD       LGT RAIN  41  39  93 VRB7      29.75F
STAPLES        DRIZZLE   43  43 100 E9G18     29.71F
LONG PRAIRIE   LGT RAIN  45  45 100 E13G18    29.70F
LITTLE FALLS   LGT RAIN  43  43 100 E9        29.73F
LITCHFIELD     DRIZZLE   52  52 100 SE8       29.73F
BUFFALO        RAIN      48  43  81 CALM      29.77S
MAPLE LAKE     RAIN      49  46  88 SE6       29.75F
$$
MNZ037-044-045-052-053-191100-
   East Central Minnesota

CITY           SKY/WX    TMP DP  RH WIND       PRES   REMARKS
PRINCETON      RAIN      46  43  87 E3        29.77F
MORA           RAIN      41  36  81 E3        29.79F
CAMBRIDGE      DRIZZLE   48  37  66 SE3       29.75F
RUSH CITY      CLOUDY    44  39  83 SE5       29.78F
MOOSE LAKE     DRIZZLE   36  34  93 CALM      29.79F
HINCKLEY       LGT RAIN  43  41  93 CALM      29.79F
CLOQUET        LGT RAIN  36  34  93 E10G16    29.81F
MCGREGOR       CLOUDY    37  36  93 E7        29.80F
$$
MNZ071>073-080-081-089-090-097-098-191100-
   Southwest Minnesota

CITY           SKY/WX    TMP DP  RH WIND       PRES   REMARKS
MONTEVIDEO     CLOUDY    55  55 100 SW8       29.69F FOG
GRANITE FALLS  LGT RAIN  55  54  97 S10       29.70F
CANBY          CLOUDY    56  54  94 SW5       29.69F FOG
MARSHALL       CLOUDY    55  52  88 SW10      29.69F
REDWOOD FALLS  CLOUDY    55  54  96 S10       29.70F FOG
OLIVIA         LGT RAIN  52  50  93 S9        29.70F
PIPESTONE      CLOUDY    55  54  94 SW12      29.71S FOG
WINDOM         CLOUDY    55  54  94 S5        29.72F
WORTHINGTON    CLOUDY    54  52  94 SW9       29.72F
JACKSON        CLOUDY    54  52  94 S7        29.73F FOG
TRACY          CLOUDY    56  54  95 S10       29.70F
SLAYTON        CLOUDY    54  54 100 SW10      29.72F FOG
$$
MNZ065>067-074>077-082>085-091>093-191100-
   South Central Minnesota

CITY           SKY/WX    TMP DP  RH WIND       PRES   REMARKS
MANKATO        CLOUDY    54  46  76 S12       29.75F
NEW ULM        CLOUDY    54  54 100 SE7       29.73F FOG
ST JAMES       LGT RAIN  55  54  94 SE6       29.74F
FAIRMONT       CLOUDY    55  46  71 S6        29.73F
GLENCOE        DRIZZLE   52  51  95 SE9       29.74F
FARIBAULT      LGT RAIN  52  46  82 SE5       29.77S
OWATONNA       LGT RAIN  52  45  76 SE16G22   29.76F
ALBERT LEA     CLOUDY    54  46  76 SE14      29.75F
$$
MNZ078>079-086>088-094>096-191100-
   Southeast Minnesota

CITY           SKY/WX    TMP DP  RH WIND       PRES   REMARKS
ROCHESTER      LGT RAIN  49  43  80 SE15      29.79F
RED WING       CLOUDY    52  36  54 SE13      29.77F
STANTON        RAIN      51  41  68 SE9       29.75F
DODGE CENTER   CLOUDY    50  45  81 SE18G24   29.77F
WINONA         CLOUDY    50  36  57 SE9       29.81F
AUSTIN         CLOUDY    50  45  81 SE10      29.77F
PRESTON        CLOUDY    50  40  67 SE7       29.81F
$$
ABBREVIATIONS USED IN REMARKS
   TC - TEMPERATURES IN CELSIUS
  WCI - WIND CHILL INDEX
   HX - HEAT INDEX
  VSB - VISIBILITY
$$


USA.gov is the U.S. government's official web portal to all federal, state and local government web resources and services.